QPF
0.00 0.00 0.00 0.00 0.00 0.00 0.00 0.01 0.02 0.02 0.02 0.02 0.03 0.04 0.04 0.04 0.04 0.05 0.06 0.06 0.06 0.08 0.09 0.07 0.10 0.08 0.06 0.06 0.05 0.07 0.08 0.07 0.06 0.06 0.05 0.03 0.02 0.04 0.02 0.01 0.02 0.02 0.02
0.00 0.00 0.00 0.00 0.00 0.00 0.00 0.01 0.01 0.01 0.01 0.01 0.03 0.04 0.04 0.03 0.04 0.05 0.08 0.07 0.07 0.08 0.08 0.09 0.07 0.07 0.08 0.07 0.08 0.09 0.09 0.08 0.07 0.08 0.10 0.09 0.08 0.06 0.02 0.01 0.02 0.02 0.03
0.00 0.00 0.00 0.00 0.00 0.00 0.00 0.00 0.01 0.01 0.01 0.01 0.01 0.02 0.03 0.04 0.05 0.05 0.05 0.05 0.05 0.07 0.07 0.08 0.08 0.10 0.09 0.10 0.10 0.10 0.10 0.10 0.09 0.09 0.11 0.15 0.15 0.12 0.06 0.02 0.03 0.03 0.04
0.00 0.00 0.00 0.00 0.00 0.00 0.00 0.00 0.01 0.01 0.01 0.01 0.01 0.02 0.03 0.04 0.03 0.03 0.04 0.05 0.05 0.04 0.05 0.05 0.06 0.09 0.07 0.07 0.05 0.08 0.10 0.11 0.11 0.12 0.13 0.13 0.14 0.16 0.14 0.10 0.06 0.05 0.06
0.00 0.00 0.00 0.00 0.00 0.00 0.00 0.00 0.01 0.01 0.01 0.02 0.03 0.03 0.03 0.04 0.03 0.02 0.04 0.05 0.06 0.06 0.04 0.04 0.05 0.07 0.06 0.06 0.06 0.08 0.08 0.07 0.09 0.11 0.14 0.14 0.12 0.13 0.14 0.14 0.11 0.08 0.07
0.00 0.00 0.00 0.00 0.00 0.00 0.00 0.00 0.00 0.01 0.01 0.01 0.02 0.03 0.04 0.04 0.04 0.05 0.05 0.03 0.05 0.04 0.04 0.05 0.05 0.05 0.05 0.07 0.07 0.08 0.08 0.08 0.08 0.08 0.10 0.13 0.13 0.13 0.12 0.11 0.13 0.13 0.08
0.00 0.00 0.00 0.00 0.00 0.00 0.00 0.01 0.01 0.01 0.01 0.01 0.01 0.02 0.03 0.03 0.03 0.02 0.03 0.02 0.02 0.02 0.03 0.05 0.06 0.06 0.07 0.06 0.08 0.08 0.08 0.07 0.07 0.06 0.08 0.10 0.10 0.08 0.08 0.09 0.10 0.12 0.10
0.00 0.00 0.00 0.00 0.00 0.00 0.00 0.01 0.01 0.01 0.01 0.01 0.02 0.03 0.03 0.02 0.01 0.02 0.02 0.02 0.01 0.01 0.03 0.05 0.05 0.05 0.05 0.05 0.06 0.05 0.05 0.05 0.06 0.05 0.07 0.08 0.07 0.07 0.06 0.08 0.09 0.10 0.09
0.00 0.00 0.00 0.00 0.00 0.00 0.01 0.01 0.00 0.00 0.00 0.01 0.01 0.02 0.03 0.02 0.02 0.02 0.02 0.01 0.02 0.02 0.03 0.03 0.03 0.04 0.03 0.04 0.04 0.05 0.04 0.04 0.04 0.05 0.06 0.06 0.06 0.06 0.06 0.06 0.08 0.10 0.10
0.00 0.01 0.01 0.01 0.01 0.00 0.01 0.01 0.00 0.00 0.00 0.00 0.00 0.01 0.02 0.02 0.03 0.02 0.02 0.02 0.02 0.02 0.02 0.02 0.02 0.02 0.02 0.03 0.04 0.04 0.04 0.03 0.03 0.04 0.04 0.04 0.04 0.05 0.05 0.05 0.06 0.09 0.11
0.00 0.00 0.00 0.00 0.01 0.01 0.01 0.01 0.00 0.00 0.01 0.01 0.00 0.00 0.01 0.01 0.02 0.02 0.02 0.02 0.02 0.02 0.02 0.03 0.04 0.03 0.04 0.05 0.04 0.04 0.03 0.03 0.03 0.03 0.03 0.03 0.04 0.05 0.05 0.05 0.05 0.05 0.08
0.00 0.00 0.00 0.00 0.01 0.01 0.01 0.01 0.01 0.01 0.01 0.01 0.01 0.01 0.00 0.01 0.01 0.02 0.02 0.02 0.02 0.02 0.03 0.04 0.04 0.04 0.04 0.05 0.06 0.05 0.04 0.04 0.04 0.03 0.03 0.03 0.05 0.06 0.05 0.04 0.04 0.05 0.08
0.00 0.00 0.00 0.00 0.01 0.01 0.01 0.02 0.03 0.03 0.02 0.01 0.01 0.00 0.00 0.00 0.01 0.02 0.03 0.03 0.02 0.02 0.03 0.03 0.04 0.04 0.04 0.04 0.04 0.04 0.04 0.04 0.05 0.04 0.04 0.05 0.05 0.05 0.06 0.06 0.05 0.05 0.06
0.00 0.00 0.00 0.01 0.02 0.02 0.01 0.01 0.02 0.03 0.03 0.02 0.01 0.01 0.01 0.01 0.01 0.03 0.04 0.04 0.04 0.04 0.04 0.04 0.05 0.04 0.04 0.04 0.03 0.03 0.03 0.03 0.04 0.04 0.04 0.04 0.04 0.04 0.04 0.04 0.03 0.03 0.04
0.00 0.00 0.00 0.01 0.01 0.01 0.02 0.01 0.01 0.02 0.04 0.03 0.03 0.02 0.02 0.02 0.03 0.04 0.04 0.05 0.05 0.05 0.07 0.06 0.06 0.05 0.04 0.04 0.03 0.04 0.04 0.04 0.03 0.03 0.02 0.02 0.02 0.02 0.02 0.01 0.02 0.02 0.03
0.00 0.00 0.00 0.01 0.01 0.01 0.01 0.01 0.01 0.02 0.03 0.05 0.05 0.05 0.04 0.04 0.04 0.04 0.05 0.06 0.06 0.06 0.07 0.07 0.07 0.06 0.04 0.04 0.04 0.04 0.05 0.05 0.04 0.03 0.03 0.03 0.03 0.02 0.02 0.01 0.01 0.01 0.02
0.01 0.01 0.00 0.01 0.01 0.01 0.00 0.01 0.01 0.01 0.02 0.03 0.04 0.04 0.04 0.06 0.07 0.06 0.06 0.05 0.05 0.05 0.07 0.08 0.08 0.06 0.04 0.04 0.03 0.03 0.04 0.04 0.04 0.04 0.04 0.03 0.03 0.04 0.03 0.02 0.01 0.01 0.01
0.00 0.00 0.00 0.00 0.00 0.00 0.01 0.01 0.01 0.01 0.02 0.02 0.03 0.05 0.06 0.07 0.07 0.07 0.06 0.04 0.03 0.04 0.05 0.06 0.06 0.07 0.07 0.06 0.04 0.03 0.02 0.03 0.03 0.04 0.04 0.04 0.03 0.03 0.03 0.03 0.03 0.02 0.02
0.00 0.00 0.00 0.00 0.00 0.00 0.01 0.01 0.01 0.01 0.01 0.02 0.03 0.05 0.05 0.05 0.04 0.05 0.05 0.04 0.04 0.04 0.03 0.04 0.04 0.05 0.05 0.04 0.03 0.03 0.03 0.04 0.03 0.03 0.03 0.03 0.03 0.03 0.03 0.03 0.03 0.02 0.02
0.00 0.00 0.00 0.00 0.00 0.00 0.01 0.01 0.02 0.02 0.02 0.03 0.03 0.05 0.05 0.04 0.05 0.05 0.05 0.05 0.04 0.04 0.04 0.04 0.04 0.04 0.04 0.05 0.04 0.03 0.03 0.03 0.04 0.04 0.03 0.02 0.02 0.02 0.02 0.02 0.01 0.01 0.02
0.00 0.00 0.01 0.01 0.01 0.01 0.01 0.01 0.02 0.03 0.03 0.04 0.05 0.06 0.06 0.06 0.06 0.06 0.05 0.04 0.04 0.04 0.04 0.04 0.04 0.03 0.04 0.05 0.04 0.03 0.02 0.03 0.03 0.04 0.04 0.04 0.04 0.03 0.02 0.02 0.01 0.01 0.01
0.00 0.01 0.01 0.01 0.01 0.01 0.01 0.01 0.02 0.02 0.03 0.04 0.05 0.06 0.07 0.07 0.07 0.07 0.07 0.06 0.06 0.05 0.04 0.04 0.03 0.03 0.03 0.04 0.04 0.04 0.03 0.03 0.03 0.04 0.05 0.05 0.04 0.03 0.02 0.01 0.00 0.00 0.00
0.01 0.01 0.01 0.01 0.01 0.01 0.01 0.02 0.02 0.03 0.04 0.04 0.07 0.09 0.10 0.11 0.12 0.12 0.11 0.10 0.09 0.07 0.05 0.04 0.04 0.03 0.04 0.04 0.04 0.04 0.04 0.04 0.04 0.04 0.04 0.03 0.02 0.01 0.01 0.01 0.01 0.01 0.01
0.00 0.00 0.00 0.01 0.01 0.01 0.01 0.02 0.03 0.05 0.06 0.06 0.07 0.07 0.09 0.12 0.15 0.17 0.16 0.14 0.12 0.10 0.09 0.07 0.05 0.04 0.05 0.06 0.06 0.05 0.04 0.04 0.03 0.02 0.02 0.02 0.01 0.01 0.01 0.01 0.01 0.01 0.01
0.00 0.00 0.00 0.01 0.01 0.01 0.01 0.01 0.02 0.04 0.05 0.07 0.08 0.08 0.10 0.13 0.14 0.15 0.14 0.13 0.12 0.10 0.09 0.07 0.06 0.04 0.04 0.05 0.05 0.03 0.03 0.03 0.02 0.02 0.02 0.02 0.01 0.01 0.01 0.01 0.01 0.00 0.00
0.00 0.01 0.01 0.01 0.02 0.01 0.01 0.02 0.02 0.03 0.03 0.05 0.08 0.09 0.10 0.11 0.11 0.11 0.10 0.10 0.10 0.10 0.10 0.09 0.07 0.05 0.04 0.04 0.03 0.03 0.03 0.03 0.03 0.02 0.02 0.01 0.01 0.01 0.00 0.01 0.01 0.00 0.00
MSLP
1006.83 1007.30 1007.70 1008.02 1008.31 1008.61 1008.93 1009.28 1009.67 1010.08 1010.48 1010.84 1011.16 1011.43 1011.66 1011.89 1012.12 1012.39 1012.70 1013.05 1013.41 1013.77 1014.11 1014.41 1014.67 1014.89 1015.10 1015.29 1015.49 1015.69 1015.87 1016.01 1016.08 1016.06 1015.94 1015.71 1015.39 1015.01 1014.61 1014.24 1013.94 1013.75 1013.66
1006.45 1007.04 1007.54 1007.95 1008.29 1008.61 1008.93 1009.28 1009.67 1010.11 1010.55 1010.98 1011.37 1011.71 1011.99 1012.24 1012.46 1012.67 1012.90 1013.15 1013.43 1013.71 1013.98 1014.24 1014.47 1014.69 1014.89 1015.10 1015.31 1015.52 1015.73 1015.91 1016.03 1016.07 1016.00 1015.83 1015.54 1015.17 1014.74 1014.30 1013.89 1013.55 1013.32
1005.90 1006.62 1007.25 1007.78 1008.20 1008.57 1008.91 1009.27 1009.67 1010.12 1010.60 1011.09 1011.54 1011.95 1012.28 1012.55 1012.75 1012.93 1013.09 1013.26 1013.45 1013.66 1013.87 1014.10 1014.32 1014.53 1014.74 1014.95 1015.17 1015.40 1015.63 1015.83 1016.00 1016.10 1016.10 1015.99 1015.75 1015.42 1014.99 1014.52 1014.04 1013.60 1013.22
1005.19 1006.04 1006.81 1007.47 1008.00 1008.44 1008.82 1009.19 1009.60 1010.07 1010.57 1011.09 1011.60 1012.06 1012.44 1012.73 1012.94 1013.09 1013.21 1013.32 1013.45 1013.60 1013.78 1013.98 1014.20 1014.42 1014.64 1014.87 1015.09 1015.33 1015.56 1015.78 1015.97 1016.11 1016.18 1016.14 1015.98 1015.71 1015.32 1014.86 1014.35 1013.84 1013.37
1004.35 1005.31 1006.22 1007.01 1007.66 1008.17 1008.61 1009.01 1009.43 1009.89 1010.41 1010.95 1011.49 1011.99 1012.40 1012.72 1012.94 1013.09 1013.18 1013.26 1013.36 1013.49 1013.65 1013.85 1014.08 1014.32 1014.56 1014.79 1015.02 1015.25 1015.47 1015.69 1015.90 1016.07 1016.18 1016.21 1016.13 1015.95 1015.63 1015.22 1014.73 1014.20 1013.67
1003.41 1004.46 1005.49 1006.41 1007.16 1007.77 1008.26 1008.69 1009.11 1009.58 1010.09 1010.65 1011.20 1011.72 1012.16 1012.50 1012.73 1012.88 1012.97 1013.04 1013.13 1013.25 1013.43 1013.64 1013.89 1014.15 1014.41 1014.66 1014.89 1015.10 1015.31 1015.51 1015.70 1015.88 1016.03 1016.12 1016.13 1016.03 1015.82 1015.49 1015.07 1014.57 1014.03
1002.44 1003.56 1004.67 1005.69 1006.55 1007.23 1007.78 1008.24 1008.68 1009.14 1009.65 1010.20 1010.75 1011.27 1011.72 1012.07 1012.32 1012.47 1012.57 1012.64 1012.74 1012.87 1013.06 1013.31 1013.59 1013.88 1014.16 1014.41 1014.64 1014.83 1015.01 1015.17 1015.35 1015.52 1015.68 1015.82 1015.90 1015.90 1015.79 1015.58 1015.25 1014.83 1014.34
1001.51 1002.65 1003.82 1004.90 1005.83 1006.59 1007.19 1007.69 1008.15 1008.62 1009.12 1009.66 1010.20 1010.72 1011.17 1011.52 1011.76 1011.92 1012.02 1012.10 1012.20 1012.35 1012.57 1012.84 1013.15 1013.47 1013.77 1014.03 1014.25 1014.42 1014.56 1014.68 1014.82 1014.96 1015.13 1015.29 1015.42 1015.51 1015.51 1015.42 1015.21 1014.90 1014.51
1000.68 1001.80 1002.98 1004.10 1005.08 1005.89 1006.54 1007.08 1007.57 1008.06 1008.56 1009.10 1009.63 1010.13 1010.57 1010.91 1011.15 1011.30 1011.40 1011.48 1011.59 1011.75 1011.98 1012.27 1012.61 1012.95 1013.27 1013.54 1013.74 1013.89 1013.99 1014.07 1014.16 1014.27 1014.41 1014.58 1014.75 1014.90 1015.00 1015.02 1014.95 1014.77 1014.50
1000.01 1001.08 1002.23 1003.34 1004.33 1005.17 1005.86 1006.44 1006.97 1007.48 1008.01 1008.55 1009.09 1009.59 1010.02 1010.35 1010.57 1010.72 1010.80 1010.88 1010.99 1011.15 1011.39 1011.69 1012.04 1012.39 1012.72 1012.99 1013.18 1013.31 1013.38 1013.42 1013.46 1013.52 1013.63 1013.78 1013.97 1014.16 1014.33 1014.45 1014.49 1014.44 1014.30
999.56 1000.53 1001.60 1002.65 1003.61 1004.44 1005.15 1005.78 1006.35 1006.91 1007.48 1008.05 1008.61 1009.11 1009.55 1009.87 1010.10 1010.23 1010.31 1010.39 1010.48 1010.64 1010.87 1011.17 1011.52 1011.87 1012.19 1012.46 1012.65 1012.75 1012.79 1012.79 1012.79 1012.81 1012.88 1013.00 1013.17 1013.38 1013.59 1013.78 1013.91 1013.97 1013.95
999.36 1000.19 1001.12 1002.06 1002.94 1003.73 1004.44 1005.09 1005.70 1006.31 1006.94 1007.55 1008.15 1008.68 1009.14 1009.48 1009.71 1009.86 1009.95 1010.02 1010.11 1010.26 1010.48 1010.77 1011.09 1011.43 1011.75 1012.00 1012.17 1012.27 1012.29 1012.26 1012.22 1012.20 1012.23 1012.31 1012.46 1012.65 1012.87 1013.09 1013.28 1013.43 1013.50
999.42 1000.06 1000.81 1001.58 1002.33 1003.03 1003.70 1004.35 1004.99 1005.65 1006.33 1007.00 1007.65 1008.23 1008.72 1009.11 1009.37 1009.54 1009.65 1009.73 1009.83 1009.98 1010.18 1010.45 1010.75 1011.07 1011.36 1011.59 1011.76 1011.84 1011.85 1011.81 1011.75 1011.71 1011.70 1011.75 1011.85 1012.02 1012.22 1012.44 1012.65 1012.84 1012.98
999.73 1000.15 1000.66 1001.22 1001.79 1002.37 1002.95 1003.57 1004.21 1004.90 1005.62 1006.34 1007.04 1007.68 1008.22 1008.65 1008.97 1009.19 1009.34 1009.45 1009.57 1009.72 1009.91 1010.16 1010.43 1010.71 1010.98 1011.19 1011.34 1011.42 1011.43 1011.39 1011.33 1011.27 1011.24 1011.26 1011.33 1011.46 1011.63 1011.82 1012.03 1012.23 1012.40
1000.26 1000.44 1000.69 1001.00 1001.36 1001.76 1002.23 1002.77 1003.38 1004.06 1004.79 1005.55 1006.28 1006.96 1007.56 1008.05 1008.43 1008.71 1008.91 1009.07 1009.22 1009.39 1009.57 1009.80 1010.04 1010.28 1010.51 1010.70 1010.83 1010.91 1010.93 1010.91 1010.86 1010.82 1010.79 1010.79 1010.84 1010.93 1011.06 1011.22 1011.40 1011.59 1011.76
1000.97 1000.90 1000.88 1000.94 1001.07 1001.28 1001.60 1002.03 1002.57 1003.20 1003.91 1004.65 1005.39 1006.09 1006.72 1007.26 1007.70 1008.04 1008.31 1008.52 1008.71 1008.90 1009.09 1009.29 1009.50 1009.71 1009.90 1010.06 1010.18 1010.25 1010.29 1010.30 1010.29 1010.27 1010.27 1010.28 1010.32 1010.39 1010.49 1010.62 1010.76 1010.92 1011.08
1001.80 1001.50 1001.25 1001.06 1000.97 1001.00 1001.15 1001.44 1001.87 1002.42 1003.06 1003.75 1004.45 1005.14 1005.77 1006.33 1006.81 1007.20 1007.53 1007.80 1008.03 1008.24 1008.43 1008.62 1008.80 1008.97 1009.12 1009.25 1009.36 1009.44 1009.50 1009.54 1009.58 1009.61 1009.65 1009.70 1009.75 1009.82 1009.91 1010.00 1010.12 1010.25 1010.39
1002.70 1002.22 1001.78 1001.40 1001.13 1000.99 1000.99 1001.14 1001.44 1001.87 1002.40 1002.99 1003.61 1004.24 1004.83 1005.38 1005.87 1006.29 1006.66 1006.97 1007.24 1007.47 1007.67 1007.85 1008.01 1008.14 1008.26 1008.36 1008.45 1008.54 1008.62 1008.70 1008.79 1008.89 1008.98 1009.07 1009.17 1009.26 1009.35 1009.43 1009.53 1009.63 1009.75
1003.59 1003.01 1002.45 1001.97 1001.58 1001.31 1001.19 1001.22 1001.39 1001.68 1002.07 1002.53 1003.04 1003.56 1004.08 1004.58 1005.05 1005.47 1005.86 1006.20 1006.49 1006.75 1006.96 1007.13 1007.26 1007.37 1007.45 1007.53 1007.61 1007.69 1007.79 1007.91 1008.05 1008.20 1008.35 1008.51 1008.64 1008.77 1008.87 1008.97 1009.06 1009.15 1009.25
1004.43 1003.83 1003.25 1002.73 1002.30 1001.98 1001.78 1001.71 1001.77 1001.93 1002.17 1002.49 1002.85 1003.25 1003.66 1004.08 1004.50 1004.90 1005.28 1005.63 1005.95 1006.21 1006.43 1006.60 1006.72 1006.81 1006.87 1006.92 1006.98 1007.06 1007.17 1007.31 1007.49 1007.68 1007.88 1008.08 1008.27 1008.43 1008.57 1008.68 1008.77 1008.86 1008.95
1005.17 1004.63 1004.11 1003.64 1003.23 1002.92 1002.70 1002.58 1002.55 1002.60 1002.71 1002.88 1003.10 1003.36 1003.66 1003.98 1004.33 1004.69 1005.05 1005.40 1005.72 1006.00 1006.23 1006.40 1006.52 1006.59 1006.64 1006.67 1006.71 1006.77 1006.87 1007.01 1007.20 1007.41 1007.64 1007.87 1008.09 1008.29 1008.45 1008.58 1008.69 1008.78 1008.87
1005.80 1005.39 1004.98 1004.62 1004.30 1004.05 1003.86 1003.72 1003.64 1003.60 1003.61 1003.65 1003.74 1003.87 1004.04 1004.27 1004.55 1004.86 1005.19 1005.53 1005.86 1006.15 1006.39 1006.57 1006.69 1006.76 1006.79 1006.80 1006.81 1006.84 1006.92 1007.04 1007.20 1007.40 1007.63 1007.87 1008.09 1008.30 1008.48 1008.63 1008.76 1008.86 1008.95
1006.32 1006.05 1005.80 1005.58 1005.39 1005.23 1005.09 1004.97 1004.87 1004.78 1004.70 1004.65 1004.62 1004.65 1004.72 1004.87 1005.07 1005.33 1005.64 1005.97 1006.29 1006.59 1006.85 1007.04 1007.17 1007.24 1007.25 1007.24 1007.22 1007.21 1007.24 1007.31 1007.42 1007.57 1007.76 1007.97 1008.19 1008.39 1008.58 1008.74 1008.87 1008.99 1009.09
1006.74 1006.63 1006.53 1006.45 1006.39 1006.32 1006.25 1006.16 1006.06 1005.94 1005.81 1005.68 1005.59 1005.53 1005.53 1005.60 1005.75 1005.97 1006.25 1006.56 1006.89 1007.20 1007.46 1007.67 1007.80 1007.87 1007.87 1007.84 1007.78 1007.71 1007.67 1007.67 1007.70 1007.79 1007.91 1008.06 1008.23 1008.40 1008.58 1008.74 1008.89 1009.02 1009.14
1007.09 1007.11 1007.14 1007.18 1007.21 1007.23 1007.21 1007.15 1007.05 1006.92 1006.76 1006.59 1006.44 1006.33 1006.27 1006.30 1006.41 1006.60 1006.85 1007.15 1007.47 1007.78 1008.05 1008.26 1008.40 1008.46 1008.45 1008.38 1008.28 1008.16 1008.04 1007.95 1007.89 1007.88 1007.91 1007.98 1008.09 1008.22 1008.37 1008.52 1008.67 1008.82 1008.95
1007.43 1007.53 1007.64 1007.75 1007.84 1007.90 1007.91 1007.87 1007.77 1007.62 1007.44 1007.25 1007.07 1006.92 1006.84 1006.83 1006.91 1007.07 1007.30 1007.58 1007.88 1008.18 1008.44 1008.65 1008.78 1008.83 1008.80 1008.71 1008.56 1008.38 1008.19 1008.01 1007.86 1007.75 1007.68 1007.66 1007.69 1007.77 1007.87 1008.01 1008.16 1008.31 1008.47
Thickness
5846 5844 5839 5835 5828 5821 5815 5809 5804 5800 5796 5792 5787 5783 5781 5781 5779 5778 5775 5772 5770 5767 5765 5764 5763 5762 5761 5760 5760 5759 5757 5756 5758 5755 5754 5759 5764 5763 5765 5766 5766 5766 5766
5847 5844 5841 5837 5832 5824 5819 5813 5808 5804 5799 5796 5792 5789 5786 5785 5784 5782 5778 5775 5772 5769 5768 5765 5763 5763 5762 5760 5760 5758 5755 5755 5757 5752 5747 5746 5752 5760 5767 5766 5765 5766 5766
5851 5846 5843 5840 5836 5829 5823 5819 5813 5809 5804 5801 5796 5793 5789 5786 5783 5781 5778 5778 5775 5772 5770 5767 5765 5764 5763 5761 5760 5759 5756 5752 5755 5755 5748 5741 5740 5748 5758 5763 5764 5765 5764
5861 5853 5847 5843 5840 5836 5832 5826 5819 5813 5809 5804 5799 5793 5787 5783 5783 5783 5781 5780 5778 5775 5773 5770 5768 5766 5765 5763 5761 5760 5758 5754 5750 5752 5753 5750 5749 5742 5743 5753 5760 5762 5761
5868 5860 5855 5850 5847 5844 5837 5830 5823 5817 5812 5808 5803 5797 5792 5790 5789 5787 5782 5780 5779 5777 5775 5773 5770 5768 5766 5765 5763 5761 5758 5756 5753 5750 5750 5749 5749 5747 5740 5740 5748 5754 5758
5873 5867 5863 5857 5852 5848 5842 5835 5825 5819 5815 5810 5806 5800 5795 5792 5789 5786 5782 5780 5779 5779 5777 5775 5772 5769 5767 5766 5764 5762 5759 5757 5755 5753 5751 5749 5746 5744 5743 5740 5742 5744 5751
5873 5867 5862 5856 5852 5848 5843 5838 5829 5821 5817 5813 5808 5804 5799 5795 5790 5788 5785 5782 5780 5779 5778 5777 5773 5770 5768 5767 5765 5762 5760 5758 5755 5753 5752 5752 5750 5750 5747 5742 5741 5741 5746
5874 5869 5864 5858 5853 5850 5845 5839 5831 5824 5820 5815 5811 5807 5803 5799 5795 5792 5790 5786 5784 5783 5783 5779 5775 5772 5770 5768 5765 5763 5761 5760 5757 5755 5754 5752 5751 5751 5748 5744 5740 5736 5738
5873 5869 5864 5860 5854 5849 5845 5840 5833 5826 5822 5818 5813 5809 5805 5802 5799 5797 5793 5790 5788 5787 5784 5781 5777 5774 5771 5768 5766 5762 5761 5760 5757 5755 5754 5752 5751 5751 5749 5747 5744 5735 5729
5870 5866 5862 5859 5856 5851 5846 5841 5835 5828 5824 5819 5815 5812 5808 5804 5801 5798 5794 5792 5790 5788 5784 5780 5777 5774 5771 5768 5765 5762 5761 5758 5756 5754 5752 5750 5750 5748 5747 5746 5744 5740 5733
5866 5864 5861 5859 5854 5850 5845 5838 5833 5828 5823 5820 5816 5813 5809 5806 5802 5798 5795 5793 5790 5787 5783 5780 5777 5774 5771 5768 5764 5761 5759 5756 5754 5752 5750 5748 5747 5744 5743 5742 5740 5738 5734
5861 5860 5858 5854 5849 5844 5840 5835 5831 5827 5823 5820 5816 5812 5809 5805 5801 5798 5795 5793 5789 5786 5783 5780 5776 5773 5770 5767 5763 5759 5758 5754 5751 5749 5747 5745 5744 5741 5739 5737 5735 5734 5732
5852 5851 5849 5845 5842 5839 5836 5833 5828 5826 5823 5819 5814 5810 5807 5804 5800 5798 5795 5792 5788 5785 5782 5778 5774 5771 5768 5765 5762 5758 5755 5752 5750 5747 5744 5741 5739 5736 5734 5733 5731 5730 5730
5841 5840 5838 5836 5835 5834 5831 5829 5825 5824 5821 5816 5812 5807 5804 5802 5799 5796 5794 5790 5787 5783 5780 5777 5774 5770 5766 5763 5759 5756 5753 5749 5747 5745 5742 5739 5735 5732 5730 5729 5727 5726 5723
5829 5829 5827 5826 5826 5825 5824 5823 5821 5820 5817 5812 5808 5806 5804 5801 5797 5793 5791 5788 5785 5782 5779 5775 5771 5768 5764 5760 5756 5753 5750 5745 5742 5740 5738 5734 5732 5729 5726 5725 5722 5720 5718
5816 5818 5819 5818 5817 5817 5816 5815 5814 5813 5812 5808 5804 5803 5801 5797 5794 5791 5788 5784 5781 5778 5775 5771 5767 5763 5761 5757 5753 5750 5746 5742 5738 5734 5733 5730 5727 5724 5722 5719 5717 5715 5712
5803 5806 5809 5810 5811 5811 5811 5809 5808 5808 5805 5803 5801 5799 5796 5793 5790 5788 5783 5779 5776 5773 5769 5766 5763 5758 5755 5752 5749 5745 5742 5738 5734 5731 5728 5726 5724 5720 5717 5715 5712 5710 5707
5797 5797 5800 5802 5804 5805 5804 5803 5803 5801 5798 5796 5795 5794 5790 5786 5784 5781 5778 5775 5771 5768 5765 5761 5758 5753 5749 5746 5743 5739 5738 5735 5731 5728 5724 5720 5716 5713 5710 5709 5707 5705 5702
5790 5791 5793 5794 5795 5795 5794 5793 5792 5792 5790 5788 5787 5786 5784 5780 5777 5774 5771 5769 5765 5762 5759 5756 5752 5747 5743 5739 5736 5733 5731 5728 5725 5722 5718 5714 5709 5705 5702 5701 5699 5697 5695
5781 5780 5782 5783 5783 5784 5785 5782 5781 5780 5780 5781 5780 5779 5777 5774 5770 5767 5765 5762 5758 5754 5752 5748 5745 5741 5736 5731 5728 5725 5725 5721 5718 5715 5711 5706 5702 5698 5695 5693 5691 5688 5687
5769 5770 5770 5769 5770 5773 5773 5770 5770 5769 5772 5773 5772 5771 5769 5767 5765 5761 5758 5755 5751 5747 5743 5739 5737 5734 5729 5724 5720 5717 5716 5714 5711 5708 5704 5699 5694 5690 5687 5684 5682 5680 5678
5755 5756 5756 5756 5759 5760 5760 5758 5758 5761 5763 5762 5761 5759 5758 5758 5757 5752 5748 5745 5741 5738 5735 5732 5729 5726 5722 5719 5713 5709 5706 5705 5703 5701 5698 5693 5688 5684 5680 5677 5675 5673 5671
5741 5743 5743 5743 5745 5747 5747 5745 5747 5750 5751 5750 5748 5747 5746 5746 5746 5741 5736 5733 5729 5727 5726 5723 5720 5717 5714 5710 5705 5701 5698 5696 5695 5694 5690 5685 5681 5676 5672 5670 5667 5665 5664
5728 5729 5729 5728 5729 5732 5734 5734 5736 5738 5737 5735 5735 5735 5734 5734 5734 5731 5728 5724 5720 5719 5717 5714 5710 5708 5706 5703 5698 5694 5690 5686 5685 5683 5679 5675 5671 5668 5666 5663 5660 5658 5657
5716 5716 5715 5715 5717 5719 5720 5722 5723 5723 5722 5722 5722 5722 5723 5722 5720 5718 5715 5714 5712 5711 5708 5705 5703 5699 5696 5694 5690 5686 5683 5680 5677 5673 5670 5667 5663 5661 5659 5657 5655 5652 5649
5703 5702 5703 5703 5705 5706 5707 5710 5711 5711 5709 5709 5710 5711 5712 5711 5709 5706 5703 5700 5700 5698 5696 5694 5691 5689 5687 5682 5679 5677 5674 5670 5666 5663 5662 5659 5657 5654 5652 5650 5647 5644 5641